Location: Warwick
(41.7000°N, 71.4170°W)
Time: 22:31:02
(UTC-05:00)

BREEZE-M DEB (TANK) - Visible Passes

Search period start: 17 February 2018 00:00
Search period end: 27 February 2018 00:00
Orbit: 277 x 15851 km, 49.5° (Epoch: 15 February)

Date Brightness Start Highest point End Pass type
(mag) Time Alt. Az. Time Alt. Az. Time Alt. Az.
17 Feb 8.6 02:38:50 10° WNW 04:11:09 70° WSW 06:00:49 10° S visible
17 Feb 7.6 21:28:21 10° WSW 21:51:04 80° NNW 00:29:52 10° E visible
18 Feb 8.6 02:38:27 10° WNW 04:09:57 68° WSW 05:59:49 10° S visible
18 Feb 7.6 21:27:51 10° WSW 21:50:57 80° NNW 00:30:19 10° E visible
19 Feb 8.6 02:38:03 10° WNW 04:08:43 67° WSW 05:58:47 10° S visible
19 Feb 7.7 21:27:20 10° WSW 21:50:49 79° NNW 00:30:43 10° ESE visible
20 Feb 8.6 02:37:37 10° WNW 04:07:25 66° WSW 05:57:42 10° S visible
20 Feb 7.7 21:26:47 10° WSW 21:50:42 79° NNW 00:31:03 10° ESE visible
21 Feb 8.6 02:37:10 10° WNW 04:06:05 65° WSW 05:56:35 10° S visible
21 Feb 7.7 21:26:14 10° W 21:50:35 78° NNW 00:31:20 10° ESE visible
22 Feb 8.6 02:36:42 10° NW 04:04:43 64° WSW 05:55:24 10° S visible
22 Feb 7.8 21:25:39 10° W 21:50:27 78° N 00:31:33 10° ESE visible
23 Feb 8.7 02:36:14 10° NW 04:03:18 62° WSW 05:54:11 10° S visible
23 Feb 7.8 21:25:04 10° W 21:50:19 77° N 00:31:42 10° ESE visible
24 Feb 8.7 02:35:43 10° NW 04:01:51 61° WSW 05:52:54 10° S visible
24 Feb 7.8 21:24:28 10° W 21:50:10 77° N 00:31:48 10° ESE visible
25 Feb 8.7 02:35:11 10° NW 04:00:22 60° WSW 05:51:35 10° S visible
25 Feb 7.9 21:23:51 10° W 21:50:02 77° N 00:31:51 10° ESE visible
26 Feb 8.7 02:34:39 10° NW 03:58:51 59° WSW 05:50:12 10° S visible
